Location: Unspecified
(22.6800°N, 112.2000°E)
Time: 08:28:31
(UTC+08:00)

Courier 1B Rocket - Pass Details

Date: 09 August 2021
Orbit: 920 x 1202 km, 28.3° (Epoch: 22 September)

Event Time Altitude Azimuth Distance (km) Brightness Sun altitude
Exits shadow 05:22:52 10° 271° (W) 2,776 6.8 -10.1°
Reaches altitude 10° 05:22:59 10° 271° (W) 2,734 6.8 -10.1°
Maximum altitude 05:28:46 33° 209° (SSW) 1,535 5.7 -8.9°
Drops below altitude 10° 05:34:19 10° 147° (SSE) 2,615 7.4 -7.7°
Sets 05:37:08 0° 137° (SE) 3,544 8.2 -7.1°
